SES-15 (WAAS/PRN 133)

Last updated on Oct. 30, 2020, 5:57 a.m. UTC

1 42709U 17026A   20303.61140380  .00000061  00000-0  00000-0 0  9996
2 42709   0.0023 348.3410 0000517 228.1112 272.9216  1.00269781 13537
UTC
Height (km)
Latitude
Longitude
Inclination
Orbital Period
UTC large
Height (km)
Speed (km/s)
/
Latitude / Longitude
Inclination (degrees)
Orbital Period (minutes)
Azimuth
Elevation
Range (km)
Doppler Factor
iOS Compass Heading
iOS Angle

Next 30 passes for location: Hong Kong

Rise time Rise Azimuth (degrees) Set time Set Azimuth (degrees) Duration Max altitude (degrees)

No matching passes for this satellites